Temp
-11 -11 -11 -11 -11 -11 -11 -10 -10 -10 -10 -10 -10 -9 -9 -9 -9 -9 -9 -10 -9 -9 -9 -9 -9 -9 -9 -9 -9 -9 -8 -9 -9 -9 -8 -8 -8 -8 -8 -8 -8 -8 -8 -8 -8
-11 -11 -11 -11 -11 -11 -11 -11 -10 -10 -10 -10 -10 -10 -10 -10 -10 -10 -10 -10 -10 -10 -10 -10 -10 -10 -10 -9 -10 -9 -9 -9 -9 -9 -9 -9 -9 -9 -9 -8 -8 -8 -8 -8 -8
-12 -12 -11 -11 -11 -11 -11 -11 -11 -10 -10 -10 -10 -10 -10 -10 -11 -11 -11 -11 -11 -11 -11 -11 -12 -12 -12 -11 -11 -10 -10 -10 -10 -10 -10 -10 -10 -9 -9 -9 -9 -9 -9 -9 -9
-13 -12 -12 -12 -12 -12 -11 -11 -11 -10 -10 -10 -10 -10 -11 -11 -11 -11 -11 -11 -12 -12 -12 -12 -12 -13 -12 -12 -12 -12 -11 -11 -11 -11 -10 -10 -10 -10 -10 -9 -9 -9 -9 -9 -9
-13 -13 -12 -12 -12 -12 -12 -11 -11 -11 -11 -10 -11 -11 -11 -11 -11 -11 -11 -12 -12 -12 -12 -12 -13 -13 -13 -12 -12 -12 -12 -12 -12 -11 -11 -11 -11 -10 -10 -10 -10 -10 -10 -10 -10
-13 -13 -13 -13 -13 -12 -12 -12 -11 -11 -11 -11 -11 -11 -11 -11 -11 -11 -11 -11 -12 -12 -12 -12 -12 -12 -12 -12 -12 -12 -12 -12 -12 -12 -11 -11 -11 -11 -11 -10 -10 -10 -10 -10 -10
-14 -14 -14 -13 -13 -13 -13 -12 -12 -11 -11 -11 -11 -11 -11 -11 -11 -11 -11 -11 -11 -12 -12 -12 -12 -12 -12 -12 -12 -12 -12 -12 -12 -12 -12 -11 -11 -11 -11 -11 -11 -11 -11 -11 -11
-14 -14 -14 -14 -14 -13 -13 -13 -12 -12 -12 -12 -11 -11 -11 -11 -11 -11 -11 -11 -11 -11 -11 -11 -12 -12 -12 -12 -12 -12 -12 -12 -12 -12 -12 -12 -12 -11 -11 -11 -11 -11 -11 -11 -11
-14 -14 -14 -14 -14 -14 -13 -13 -13 -12 -12 -12 -12 -12 -11 -11 -11 -11 -11 -11 -11 -11 -11 -12 -12 -12 -12 -12 -12 -12 -12 -12 -12 -12 -12 -12 -12 -12 -12 -12 -12 -12 -11 -11 -11
-15 -15 -14 -14 -14 -14 -14 -13 -13 -13 -12 -12 -12 -12 -11 -11 -11 -11 -11 -11 -11 -11 -12 -12 -12 -12 -12 -12 -12 -12 -12 -12 -12 -13 -13 -12 -12 -12 -12 -12 -12 -12 -12 -11 -11
-15 -15 -15 -15 -14 -14 -14 -14 -13 -13 -12 -12 -12 -12 -11 -12 -11 -12 -12 -12 -11 -12 -12 -12 -12 -12 -12 -12 -12 -12 -13 -13 -12 -12 -13 -12 -12 -12 -12 -12 -12 -12 -12 -12 -12
-16 -15 -15 -15 -15 -15 -14 -14 -14 -13 -13 -12 -12 -12 -11 -11 -12 -12 -12 -12 -12 -12 -12 -12 -12 -12 -12 -12 -13 -13 -13 -13 -13 -12 -13 -13 -13 -12 -12 -12 -12 -12 -12 -12 -12
-16 -16 -16 -15 -15 -15 -15 -14 -14 -14 -13 -13 -12 -12 -12 -11 -11 -12 -12 -12 -12 -12 -12 -12 -12 -12 -12 -13 -13 -13 -13 -13 -13 -13 -13 -13 -12 -12 -12 -12 -12 -12 -12 -12 -12
-17 -17 -16 -16 -15 -15 -15 -15 -15 -14 -13 -13 -13 -12 -12 -12 -11 -12 -12 -12 -12 -12 -12 -12 -12 -12 -13 -13 -13 -13 -13 -13 -13 -13 -13 -13 -12 -12 -12 -12 -12 -12 -12 -12 -13
-16 -17 -17 -17 -16 -16 -15 -15 -15 -15 -13 -13 -13 -12 -12 -12 -12 -12 -12 -12 -12 -12 -12 -12 -13 -13 -13 -13 -13 -13 -13 -13 -13 -13 -13 -13 -12 -13 -13 -13 -13 -13 -13 -13 -13
-18 -17 -17 -17 -17 -16 -16 -16 -15 -15 -14 -14 -13 -13 -13 -12 -12 -12 -12 -12 -12 -13 -12 -13 -13 -13 -13 -13 -13 -14 -13 -13 -13 -13 -13 -13 -13 -13 -13 -13 -13 -13 -13 -13 -13
-18 -18 -16 -17 -17 -17 -16 -16 -16 -15 -15 -14 -14 -14 -13 -13 -13 -13 -13 -13 -13 -13 -13 -13 -13 -13 -13 -13 -14 -14 -14 -13 -13 -13 -13 -13 -13 -13 -13 -13 -13 -13 -13 -13 -13
-19 -19 -18 -17 -18 -17 -17 -17 -16 -15 -15 -15 -15 -15 -14 -14 -13 -13 -13 -13 -13 -13 -13 -13 -13 -14 -14 -14 -14 -14 -14 -14 -14 -13 -13 -14 -13 -14 -14 -14 -13 -13 -13 -13 -13
-20 -20 -19 -18 -17 -18 -18 -17 -16 -16 -16 -16 -15 -15 -15 -14 -14 -14 -13 -13 -13 -13 -14 -14 -14 -14 -14 -14 -14 -14 -14 -14 -14 -14 -13 -14 -14 -14 -14 -14 -14 -14 -14 -14 -14
-20 -20 -19 -19 -18 -18 -18 -17 -16 -16 -16 -16 -16 -16 -15 -15 -15 -14 -14 -14 -14 -14 -14 -14 -14 -14 -14 -14 -14 -14 -14 -14 -14 -14 -14 -14 -14 -14 -14 -14 -14 -14 -14 -14 -14
-21 -20 -20 -20 -19 -18 -17 -16 -17 -17 -17 -17 -16 -16 -16 -16 -15 -15 -14 -14 -14 -15 -15 -15 -14 -14 -14 -14 -14 -14 -14 -14 -14 -14 -14 -14 -14 -15 -14 -14 -14 -14 -14 -14 -14
-23 -21 -21 -20 -20 -19 -17 -16 -17 -17 -17 -17 -17 -16 -16 -16 -16 -16 -15 -15 -15 -15 -15 -15 -15 -14 -14 -14 -14 -14 -14 -14 -14 -14 -15 -14 -15 -15 -15 -14 -15 -15 -15 -15 -15
-24 -22 -21 -21 -20 -19 -18 -17 -17 -17 -17 -17 -17 -17 -17 -17 -16 -16 -16 -16 -15 -15 -15 -15 -15 -15 -14 -14 -14 -14 -15 -15 -15 -14 -14 -15 -15 -16 -15 -15 -15 -15 -15 -15 -15
-23 -23 -22 -21 -21 -20 -19 -18 -18 -18 -18 -18 -17 -17 -17 -17 -17 -17 -16 -16 -16 -16 -16 -16 -15 -15 -15 -15 -14 -15 -15 -15 -15 -15 -15 -15 -16 -16 -15 -15 -16 -16 -16 -16 -16
-24 -23 -23 -21 -20 -20 -19 -19 -19 -18 -19 -18 -18 -17 -18 -17 -17 -17 -17 -17 -16 -16 -16 -16 -16 -16 -15 -15 -15 -15 -16 -15 -15 -15 -15 -16 -16 -16 -16 -16 -16 -17 -16 -17 -17
-25 -23 -22 -20 -21 -20 -20 -19 -19 -19 -19 -19 -18 -18 -18 -18 -18 -18 -18 -17 -17 -17 -17 -16 -16 -16 -16 -15 -15 -15 -16 -16 -16 -16 -16 -16 -17 -17 -17 -17 -17 -17 -17 -17 -17
-25 -24 -23 -21 -21 -21 -19 -19 -19 -19 -20 -19 -19 -19 -18 -18 -18 -18 -18 -18 -17 -17 -17 -17 -17 -16 -16 -16 -16 -15 -17 -17 -17 -17 -17 -17 -17 -17 -17 -17 -17 -17 -17 -17 -17
Height
5776 5777 5778 5778 5778 5777 5777 5777 5777 5777 5777 5777 5777 5776 5775 5774 5773 5772 5770 5770 5768 5767 5766 5765 5766 5767 5768 5769 5771 5772 5774 5776 5777 5778 5782 5783 5784 5786 5787 5788 5789 5791 5792 5794 5794
5772 5771 5772 5773 5773 5774 5774 5774 5774 5774 5774 5774 5773 5773 5772 5771 5770 5768 5767 5765 5763 5762 5760 5760 5759 5759 5760 5761 5763 5764 5766 5767 5769 5770 5772 5775 5776 5779 5780 5782 5783 5783 5784 5786 5787
5768 5768 5767 5766 5768 5769 5770 5771 5771 5771 5771 5770 5770 5769 5768 5767 5767 5765 5763 5761 5759 5757 5755 5754 5753 5753 5754 5754 5754 5756 5758 5760 5761 5763 5765 5767 5769 5771 5772 5775 5776 5777 5777 5779 5780
5764 5762 5761 5761 5762 5763 5765 5766 5767 5767 5767 5767 5766 5765 5764 5763 5764 5761 5759 5757 5755 5753 5751 5749 5749 5749 5749 5750 5749 5750 5751 5752 5754 5756 5757 5759 5761 5764 5766 5769 5769 5770 5771 5772 5773
5758 5758 5756 5755 5756 5757 5758 5760 5761 5762 5762 5762 5762 5761 5760 5759 5758 5757 5755 5753 5751 5750 5748 5747 5746 5745 5745 5745 5745 5745 5745 5746 5748 5749 5750 5752 5754 5756 5759 5762 5762 5763 5765 5765 5767
5749 5751 5752 5751 5750 5751 5753 5753 5755 5756 5757 5757 5756 5756 5755 5755 5754 5753 5751 5750 5748 5747 5745 5744 5742 5742 5741 5740 5740 5739 5740 5741 5742 5743 5743 5745 5747 5749 5752 5754 5755 5756 5757 5758 5758
5740 5742 5743 5745 5745 5745 5746 5748 5748 5749 5750 5751 5750 5750 5750 5751 5749 5748 5747 5746 5744 5743 5742 5740 5739 5738 5738 5736 5734 5734 5734 5734 5735 5736 5737 5738 5740 5742 5744 5746 5748 5749 5749 5750 5750
5732 5732 5734 5736 5738 5739 5740 5740 5741 5741 5742 5744 5745 5745 5745 5744 5744 5744 5743 5742 5740 5739 5738 5736 5735 5734 5733 5732 5730 5728 5728 5728 5728 5729 5730 5732 5732 5734 5735 5737 5740 5741 5742 5742 5742
5723 5724 5725 5726 5729 5731 5732 5733 5733 5733 5734 5736 5738 5738 5739 5739 5738 5739 5739 5738 5737 5736 5735 5733 5732 5731 5729 5727 5726 5723 5723 5722 5722 5723 5724 5725 5725 5726 5728 5731 5733 5734 5735 5735 5734
5710 5713 5715 5718 5719 5722 5724 5725 5725 5726 5727 5728 5730 5733 5733 5733 5732 5733 5734 5733 5732 5732 5731 5730 5729 5727 5725 5723 5721 5719 5718 5716 5716 5718 5718 5719 5718 5719 5721 5725 5725 5726 5727 5727 5727
5696 5700 5704 5707 5710 5712 5715 5717 5719 5719 5719 5720 5723 5725 5725 5726 5726 5727 5727 5728 5727 5727 5727 5726 5725 5723 5721 5719 5716 5714 5713 5712 5712 5712 5712 5713 5712 5712 5716 5718 5718 5718 5719 5720 5720
5685 5686 5691 5695 5700 5702 5705 5707 5709 5710 5711 5712 5714 5717 5718 5718 5719 5720 5721 5723 5722 5722 5722 5721 5720 5719 5717 5715 5713 5711 5709 5708 5707 5707 5708 5707 5706 5708 5708 5710 5711 5712 5712 5712 5712
5671 5674 5677 5682 5688 5693 5695 5697 5699 5700 5702 5705 5706 5708 5710 5711 5711 5712 5714 5715 5716 5716 5716 5715 5715 5713 5712 5710 5709 5707 5705 5703 5703 5702 5702 5702 5701 5701 5702 5702 5703 5704 5704 5703 5703
5656 5662 5665 5669 5676 5680 5684 5687 5689 5691 5692 5698 5698 5700 5702 5703 5704 5705 5706 5708 5709 5709 5710 5710 5708 5708 5707 5705 5703 5702 5700 5698 5697 5696 5696 5695 5696 5695 5695 5695 5695 5695 5696 5695 5695
5638 5648 5653 5656 5662 5668 5673 5677 5680 5682 5682 5689 5691 5692 5693 5697 5697 5697 5699 5700 5702 5703 5704 5704 5702 5701 5701 5699 5698 5697 5694 5693 5691 5690 5689 5689 5688 5689 5688 5688 5688 5688 5688 5687 5686
5624 5630 5639 5645 5648 5655 5660 5665 5669 5673 5672 5680 5683 5685 5686 5687 5689 5690 5692 5694 5695 5696 5696 5696 5696 5695 5695 5693 5691 5689 5687 5686 5685 5684 5683 5682 5682 5682 5681 5681 5681 5680 5679 5678 5677
5609 5616 5622 5630 5637 5641 5646 5653 5657 5657 5667 5672 5675 5677 5678 5680 5682 5683 5685 5686 5688 5689 5689 5689 5690 5689 5688 5686 5683 5681 5679 5677 5678 5677 5677 5675 5675 5675 5674 5674 5672 5671 5670 5669 5667
5591 5598 5607 5612 5620 5628 5631 5638 5642 5649 5656 5662 5666 5668 5671 5672 5674 5676 5678 5679 5680 5681 5682 5682 5683 5683 5682 5679 5676 5673 5671 5670 5667 5669 5670 5669 5668 5668 5667 5665 5663 5662 5661 5660 5658
5575 5582 5590 5599 5601 5611 5617 5621 5632 5643 5648 5652 5655 5658 5661 5665 5666 5667 5669 5671 5672 5673 5676 5675 5675 5676 5675 5672 5669 5666 5664 5663 5660 5660 5660 5662 5662 5662 5659 5656 5654 5653 5652 5650 5646
5559 5567 5576 5583 5587 5591 5600 5611 5620 5630 5637 5643 5645 5647 5652 5656 5658 5659 5661 5664 5665 5666 5666 5668 5668 5668 5667 5665 5662 5659 5658 5656 5654 5652 5653 5655 5656 5653 5650 5647 5645 5644 5643 5638 5635
5540 5548 5560 5566 5573 5574 5586 5600 5610 5619 5627 5632 5635 5638 5642 5646 5648 5652 5653 5657 5657 5658 5659 5659 5661 5662 5660 5658 5655 5654 5651 5649 5647 5646 5643 5645 5650 5646 5642 5638 5637 5635 5632 5628 5624
5527 5532 5547 5551 5555 5564 5577 5588 5598 5607 5614 5621 5625 5629 5633 5637 5639 5641 5646 5647 5650 5650 5651 5652 5652 5653 5652 5650 5648 5646 5644 5642 5639 5639 5637 5635 5641 5636 5632 5628 5628 5625 5621 5616 5611
5511 5520 5530 5535 5540 5552 5565 5575 5584 5595 5602 5609 5614 5619 5624 5628 5629 5632 5635 5638 5640 5642 5643 5644 5645 5644 5644 5644 5641 5638 5636 5634 5631 5629 5631 5626 5631 5624 5621 5619 5617 5613 5609 5603 5598
5496 5504 5511 5519 5530 5540 5550 5562 5571 5581 5589 5596 5603 5609 5614 5617 5621 5623 5626 5628 5630 5632 5634 5634 5636 5637 5636 5634 5635 5632 5630 5626 5624 5623 5618 5623 5617 5616 5610 5610 5605 5601 5597 5591 5586
5480 5490 5502 5512 5523 5531 5537 5548 5557 5566 5575 5584 5592 5598 5605 5608 5611 5613 5617 5619 5620 5623 5624 5625 5627 5628 5626 5625 5625 5623 5622 5619 5618 5615 5611 5612 5609 5604 5603 5599 5595 5592 5586 5581 5575
5468 5479 5490 5504 5510 5516 5522 5534 5546 5553 5563 5573 5581 5589 5592 5597 5600 5602 5605 5609 5611 5614 5614 5616 5618 5618 5617 5616 5615 5615 5613 5610 5609 5607 5604 5600 5600 5593 5592 5587 5584 5579 5574 5569 5562
5457 5468 5476 5486 5496 5504 5515 5527 5534 5542 5549 5559 5567 5571 5578 5585 5589 5592 5595 5598 5601 5603 5605 5607 5608 5608 5609 5608 5605 5607 5605 5602 5600 5597 5595 5591 5588 5584 5581 5578 5573 5568 5562 5556 5548
Wind_Speed
18 15 14 14 12 11 10 8 7 6 7 9 11 11 12 12 12 13 15 17 19 21 25 29 32 34 35 38 38 39 39 38 38 39 37 38 38 38 36 36 35 35 34 34 33
18 17 15 14 12 11 11 11 9 9 9 10 11 11 10 10 12 14 14 16 16 18 20 24 27 29 31 34 37 38 38 37 35 36 37 38 39 38 37 37 36 35 35 34 35
20 20 17 15 13 13 13 13 13 11 12 12 12 11 11 10 11 13 14 15 15 16 18 19 21 22 23 25 29 34 36 35 34 34 34 36 37 37 36 35 35 35 35 34 34
23 22 20 16 16 16 16 16 16 15 15 14 12 11 9 10 9 11 12 13 13 13 14 16 17 19 17 18 19 23 29 31 32 32 32 34 35 36 35 33 34 34 34 35 35
27 25 22 19 18 18 18 18 18 17 18 16 13 10 9 9 9 10 10 9 10 9 10 12 13 15 20 19 21 21 22 24 27 29 31 32 33 34 34 33 34 35 35 36 37
30 27 24 23 22 20 19 19 20 20 20 19 15 12 10 9 10 9 10 10 9 8 10 12 12 14 16 19 21 24 26 28 28 27 29 31 32 32 32 33 34 36 38 39 39
33 31 27 26 24 23 22 23 23 22 21 20 17 14 12 10 10 10 10 10 12 14 15 16 14 13 14 16 20 23 24 25 26 29 32 35 36 36 36 37 36 35 36 36 35
37 34 31 29 29 27 27 26 26 24 23 21 20 17 14 13 11 11 10 9 10 11 10 9 10 12 17 18 17 18 20 24 25 27 28 29 31 31 33 33 31 31 32 33 34
41 38 35 32 32 31 30 29 27 26 26 25 23 21 18 16 15 13 13 11 10 12 13 11 11 14 15 15 16 17 18 20 22 23 25 26 28 29 30 29 27 29 30 32 33
43 42 39 36 35 34 32 31 28 27 26 25 26 24 22 20 18 17 15 14 13 13 13 14 14 14 15 16 15 16 17 16 18 19 21 22 25 27 27 24 26 29 30 30 31
45 44 43 40 38 35 34 33 31 28 27 24 24 25 24 23 21 19 19 17 16 16 16 17 17 18 16 16 16 16 15 16 14 14 18 20 23 25 22 22 25 27 28 29 29
48 45 45 43 41 38 36 35 34 31 29 27 26 25 25 22 23 24 22 21 18 19 19 18 20 20 19 18 17 16 15 15 15 15 15 18 21 21 22 23 24 26 27 28 29
53 47 46 45 43 41 38 36 35 35 33 29 27 26 26 24 23 25 24 23 21 20 20 20 20 21 21 20 19 18 18 17 16 17 18 18 20 21 22 23 24 25 27 29 30
57 52 47 45 45 42 41 38 37 36 36 31 28 26 25 23 23 25 26 25 23 21 21 21 21 20 20 20 20 20 19 18 18 18 18 20 20 20 22 24 25 27 28 30 31
62 58 51 47 45 44 43 41 38 37 38 30 26 23 24 23 21 20 23 24 22 21 21 19 18 17 18 20 21 21 22 22 19 19 18 18 22 20 23 25 26 27 28 29 30
53 59 57 51 47 46 44 43 41 39 40 28 24 22 23 23 21 21 22 22 23 21 19 17 16 17 20 24 27 29 28 26 23 20 18 16 18 18 20 23 25 26 28 29 30
50 54 61 57 50 47 46 46 45 45 35 31 28 27 26 25 24 23 23 22 21 19 18 17 17 19 21 26 29 29 29 29 26 21 18 18 19 19 21 23 25 28 29 29 31
40 48 54 62 57 52 48 49 52 48 38 33 29 26 24 25 25 24 23 22 21 21 21 19 19 21 23 27 28 27 26 26 28 23 20 20 20 20 21 24 28 29 30 31 34
31 42 49 58 60 57 53 54 52 45 41 36 32 32 29 28 29 28 27 26 25 23 23 22 21 22 24 28 27 24 24 25 26 26 23 20 20 20 23 27 30 31 31 34 38
50 34 41 54 63 62 60 56 53 49 43 37 36 36 31 29 31 30 29 27 26 25 25 24 24 24 26 26 26 24 23 24 25 27 24 21 20 23 26 30 33 33 33 38 40
64 51 33 40 59 66 63 59 53 49 45 41 39 37 33 30 31 30 30 28 28 27 27 27 28 25 26 27 27 24 23 24 25 26 28 27 19 24 30 34 35 33 36 39 41
55 65 40 42 50 64 61 60 56 49 46 45 42 40 36 33 32 33 30 31 29 30 30 30 30 28 28 27 27 25 24 25 28 28 28 30 23 28 33 36 36 35 38 41 44
49 59 53 41 45 56 61 60 57 52 48 47 45 43 38 35 35 33 32 31 32 32 31 31 30 29 30 29 27 26 26 28 30 31 28 33 28 33 37 38 37 38 40 45 47
50 57 60 43 43 49 57 61 60 54 51 49 48 45 41 37 35 34 32 33 33 33 33 33 31 31 31 31 29 27 26 28 30 29 34 27 33 32 40 39 39 40 44 47 48
53 57 51 55 43 44 52 58 60 57 54 51 50 46 41 38 36 36 34 34 35 33 33 34 31 30 31 31 30 28 25 29 29 31 34 30 33 37 38 39 40 41 45 47 48
44 52 59 59 50 46 46 51 57 58 54 52 50 44 43 41 38 38 37 35 36 34 33 33 30 29 30 30 30 28 26 30 30 30 32 34 32 38 38 41 42 44 46 47 50
45 47 55 64 57 51 48 44 51 59 55 53 51 50 47 43 42 41 37 36 35 34 33 32 31 30 29 28 31 31 29 30 32 34 34 34 35 38 41 41 43 45 46 48 53
Wind_Direction
244 243 249 253 256 260 262 263 268 279 287 293 296 295 299 301 304 306 305 298 292 282 274 265 260 256 253 249 249 250 251 250 248 248 245 244 244 245 246 247 248 249 248 249 248
244 242 242 249 257 260 266 267 267 274 283 289 293 298 300 303 308 309 303 300 299 296 285 272 265 260 255 252 249 248 248 248 248 248 246 244 244 245 245 246 248 250 251 250 251
246 241 240 244 250 257 261 264 265 270 277 282 287 287 295 302 314 313 312 308 305 300 291 287 275 267 263 257 251 245 247 246 246 245 244 243 242 242 242 243 245 248 250 252 255
248 242 239 240 246 251 255 256 260 262 268 272 277 279 296 303 314 321 324 323 318 310 302 298 279 263 262 263 261 256 247 246 245 244 243 242 241 241 242 244 246 249 252 255 257
249 246 240 238 243 246 249 253 256 260 265 268 267 272 287 296 309 323 333 338 337 328 334 325 313 283 258 260 259 259 256 251 247 246 245 244 243 243 244 244 246 250 253 256 259
246 244 244 240 241 244 249 251 251 254 259 261 260 269 273 281 290 303 311 320 320 309 300 306 302 295 279 273 267 260 255 251 249 247 246 247 247 246 247 249 250 253 257 259 260
241 242 242 243 243 242 246 250 250 251 254 258 258 262 263 269 271 286 297 305 307 299 292 292 289 292 296 289 268 260 260 256 253 250 249 249 251 253 253 254 256 257 258 260 262
243 240 240 242 242 244 246 249 251 249 251 255 255 255 256 256 261 271 281 295 310 318 322 309 300 287 294 297 278 270 261 255 252 250 250 250 252 252 253 254 256 258 260 262 263
245 243 240 240 243 244 248 250 252 252 252 251 253 254 255 252 252 260 266 278 292 297 304 307 297 295 300 297 288 280 271 264 254 251 250 250 251 251 252 255 257 258 258 258 260
242 244 243 241 241 245 249 252 253 253 251 251 251 254 255 252 257 257 260 270 276 286 292 298 304 308 302 304 307 287 275 271 262 254 250 249 251 250 253 256 254 254 256 257 260
237 241 242 243 242 243 247 253 254 251 246 247 251 254 254 255 255 249 253 267 272 274 283 289 296 298 304 304 306 306 282 271 269 258 252 250 250 255 255 251 252 255 257 259 262
239 236 240 241 243 242 244 250 254 252 244 245 249 252 253 256 252 249 254 261 270 267 276 283 290 292 297 301 307 307 305 283 271 263 256 252 253 258 259 255 253 255 259 264 269
240 237 235 239 241 243 242 244 251 253 249 242 246 251 254 257 249 249 251 253 264 265 270 279 286 288 292 296 296 300 300 294 281 266 260 256 257 260 261 263 264 266 268 270 272
237 239 235 235 238 240 241 242 247 252 252 246 246 248 249 250 251 251 247 250 257 258 268 279 284 288 290 291 295 301 302 297 287 279 269 262 260 260 262 264 264 264 265 267 269
235 236 237 232 235 237 238 240 243 250 253 247 248 247 242 245 245 241 241 245 254 259 270 277 280 285 289 294 298 299 300 301 300 287 275 266 263 255 257 258 262 264 267 267 269
247 239 233 235 231 234 236 237 238 245 248 246 243 242 239 238 239 238 239 244 253 259 264 268 278 285 294 299 299 297 295 293 293 291 280 267 262 258 257 259 262 263 264 267 269
247 247 239 230 233 231 232 235 235 237 241 245 244 244 244 241 238 237 238 242 247 251 254 263 273 286 296 308 304 296 293 290 286 281 276 263 258 259 257 261 262 263 265 269 276
237 243 241 230 228 232 229 231 235 237 237 241 245 243 242 240 235 232 237 242 240 244 252 257 266 284 296 306 307 300 292 287 285 281 271 262 262 262 265 265 267 268 271 278 284
228 241 236 238 225 226 229 228 235 236 235 237 238 243 243 245 244 243 241 241 242 245 250 255 262 279 296 306 308 302 292 286 283 282 276 265 264 268 272 273 274 276 280 285 289
231 223 236 234 230 221 226 228 229 231 234 235 236 238 241 244 248 245 242 242 244 244 247 253 264 278 292 305 310 307 298 289 285 282 275 266 263 274 274 274 275 282 288 290 295
243 236 220 234 233 227 226 229 229 229 231 232 236 240 239 240 247 250 247 245 244 245 247 255 265 275 286 297 306 303 299 293 286 282 280 277 265 268 273 276 281 289 290 294 301
246 239 230 223 230 232 230 227 228 227 228 232 234 237 240 240 243 248 250 248 246 246 250 258 264 274 281 290 299 296 294 294 289 285 281 279 278 277 278 280 289 292 295 299 304
237 246 231 230 231 229 230 228 224 225 227 229 233 235 237 241 245 246 248 250 250 251 254 258 265 272 278 285 294 296 292 289 285 284 284 278 285 280 282 288 294 295 299 302 307
232 238 231 227 230 225 227 228 223 223 225 228 231 234 236 239 244 247 248 250 252 254 258 260 266 271 276 282 290 293 288 285 284 288 281 287 279 289 285 294 295 299 302 306 309
226 233 224 230 221 224 226 227 223 222 223 226 229 232 236 239 243 246 248 250 251 255 258 262 265 269 275 282 291 296 292 287 287 284 284 285 286 285 291 293 297 302 304 308 310
224 230 242 220 236 222 226 226 228 221 221 225 228 230 234 236 236 239 243 248 252 254 258 262 264 267 274 283 288 293 292 289 290 286 286 285 290 290 292 296 302 305 306 309 312
221 226 233 229 230 225 222 225 227 228 220 221 224 227 229 234 236 238 241 246 251 252 257 261 264 265 269 278 285 293 292 291 287 286 287 288 289 290 294 298 303 304 307 311 313